Flag Weather past 2 weeks in Amsterdam Island, French Southern Territories, France

Now
60 °F

Cool.


Feels Like: 60 °F
Forecast: 54 / 60 °F
Wind: 7 mph from Southwest

Location: Martin De Vivies Ile Amsterdam

Current Time: Nov 29, 2014 at 9:07:57 AM

Latest Report: Nov 29, 2014 at 8:00 AM


Visibility: N/A

Pressure: 30.16 "Hg

Humidity: 69%

Dew point: 50 °F

Location of Amsterdam IslandLocation

Historic Weather in Amsterdam Island — Graph

°F

Amsterdam Island temperature yesterday

Maximum temperature yesterday: 61 °F (at 12:00 PM)
Minimum temperature yesterday: 56 °F (at 11:00 PM)
Average temperature yesterday: 59 °F

Past Weeks' High & Low Weather Summary

 TemperatureHumidityPressure
High65 °F (Nov 24, 12:00 PM)100% (Nov 22, 7:00 PM)30.55 "Hg (Nov 22, 7:00 PM)
Low49 °F (Nov 19, 10:00 PM)53% (Nov 25, 4:00 PM)29.72 "Hg (Nov 18, 4:00 PM)
Average58 °F86%30.12 "Hg
* Reported Nov 14 9:00 AM — Nov 29 8:00 AM, Amsterdam Island, Weather by CustomWeather, © 2014

Note: Actual official high and low records may vary slightly from our data, if they occured in-between our weather recording intervals... More about our weather records

Advertising

Amsterdam Island weather history for previous 24 hours

 ConditionsComfort  
Time TempWeatherWind HumidityBarometerVisibility
8:00 AM
Nov 29
60 °FCool.7 mph69%30.16 "HgN/A
7:00 AM58 °FCool.5 mph70%30.16 "HgN/A
6:00 AM56 °FCool.2 mph77%30.14 "HgN/A
5:00 AM50 °FCool.5 mph82%30.13 "HgN/A
4:00 AM51 °FCool.9 mph80%30.11 "HgN/A
3:00 AM51 °FCool.3 mph83%30.09 "HgN/A
2:00 AM53 °FCool.2 mph84%30.08 "HgN/A
1:00 AM55 °FCool.6 mph90%30.08 "HgN/A
12:00 AM55 °FCool.3 mph93%30.09 "HgN/A
11:00 PM
Nov 28
56 °FCool.3 mph94%30.08 "HgN/A
10:00 PM56 °FCool.6 mph95%30.08 "HgN/A
9:00 PM58 °FCool.3 mph95%30.07 "HgN/A
8:00 PM59 °FCool.12 mph97%30.04 "HgN/A
7:00 PM60 °FCool.17 mph97%30.03 "HgN/A
6:00 PM60 °FCool.18 mph96%30.02 "HgN/A
5:00 PM60 °FCool.20 mph96%30.00 "HgN/A
4:00 PM60 °FCool.17 mph95%30.01 "HgN/A
3:00 PM60 °FCool.15 mph95%30.02 "HgN/A
2:00 PM61 °FCool.17 mph95%30.03 "HgN/A
12:00 PM61 °FCool.21 mph96%30.04 "HgN/A
11:00 AM60 °FCool.15 mph95%30.05 "HgN/A
10:00 AM60 °FCool.12 mph95%30.06 "HgN/A
9:00 AM60 °FCool.16 mph95%30.07 "HgN/A
Weather by CustomWeather, © 2014

See weather overviewHow to use our weather pages